Location: Arboyeti
(42.1122°N, 44.6017°E)
Time: 21:20:37
(UTC+00:00)

Cosmos 1655 Rocket - Pass Details

Date: 19 April 2021
Orbit: 969 x 1007 km, 82.9° (Epoch: 18 May)

Event Time Altitude Azimuth Distance (km) Brightness Sun altitude
Rises 17:26:10 0° 357° (N) 3,705 7.6 -17.4°
Reaches altitude 10° 17:28:50 10° 3° (N) 2,747 6.8 -17.8°
Maximum altitude 17:34:53 47° 77° (ENE) 1,266 4.3 -18.7°
Enters shadow 17:37:20 32° 129° (SE) 1,606 4.6 -19.0°
